Time,TemperatureF,DewpointF,PressureIn,WindDirection,WindDirectionDegrees,WindSpeedMPH,WindSpeedGustMPH,Humidity,HourlyPrecipIn,Conditions,Clouds,dailyrainin,SoftwareType,DateUTC
2013-06-29 00:33:00,95.0,58.0,29.48,North,0,0.0,-999.0,29,0.00,,,-99.99,,2013-06-29 07:33:00,
2013-06-29 00:43:00,95.0,58.0,29.48,North,0,0.0,-999.0,29,0.00,,,-99.99,,2013-06-29 07:43:00,
2013-06-29 03:33:00,88.0,59.0,29.43,North,0,0.0,-999.0,38,0.00,,,-99.99,,2013-06-29 10:33:00,
2013-06-29 03:43:00,88.0,59.0,29.43,North,0,0.0,-999.0,38,0.00,,,-99.99,,2013-06-29 10:43:00,
2013-06-29 03:52:00,88.0,59.0,29.43,North,0,0.0,-999.0,38,0.00,,,-99.99,,2013-06-29 10:52:00,
2013-06-29 04:33:00,87.0,57.0,29.28,West,270,1.0,-999.0,36,0.00,,,-99.99,,2013-06-29 11:33:00,
2013-06-29 04:43:00,87.0,57.0,29.28,West,270,1.0,-999.0,36,0.00,,,-99.99,,2013-06-29 11:43:00,
2013-06-29 04:53:00,87.0,57.0,29.28,West,270,1.0,-999.0,36,0.00,,,-99.99,,2013-06-29 11:53:00,
2013-06-29 05:34:00,88.0,56.0,29.54,North,0,0.0,-999.0,34,0.00,,,-99.99,,2013-06-29 12:34:00,
2013-06-29 05:43:00,88.0,56.0,29.54,North,0,0.0,-999.0,34,0.00,,,-99.99,,2013-06-29 12:43:00,
2013-06-29 05:52:00,88.0,56.0,29.54,North,0,0.0,-999.0,34,0.00,,,-99.99,,2013-06-29 12:52:00,
2013-06-29 08:33:00,91.0,56.0,29.47,North,0,0.0,-999.0,31,0.00,,,-99.99,,2013-06-29 15:33:00,
2013-06-29 08:42:00,91.0,56.0,29.47,North,0,0.0,-999.0,31,0.00,,,-99.99,,2013-06-29 15:42:00,
2013-06-29 10:33:00,104.0,52.0,29.45,North,0,0.0,-999.0,18,0.00,,,-99.99,,2013-06-29 17:33:00,
2013-06-29 10:42:00,104.0,52.0,29.45,North,0,0.0,-999.0,18,0.00,,,-99.99,,2013-06-29 17:42:00,
2013-06-29 10:52:00,104.0,52.0,29.45,North,0,0.0,-999.0,18,0.00,,,-99.99,,2013-06-29 17:52:00,
2013-06-29 12:54:00,115.0,54.0,29.44,North,0,0.0,-999.0,14,0.00,,,-99.99,,2013-06-29 19:54:00,
2013-06-29 13:33:00,120.0,46.0,29.25,North,0,0.0,-999.0,9,0.00,,,-99.99,,2013-06-29 20:33:00,
2013-06-29 13:43:00,120.0,46.0,29.25,North,0,0.0,-999.0,9,0.00,,,-99.99,,2013-06-29 20:43:00,
2013-06-29 13:52:00,120.0,46.0,29.25,North,0,0.0,-999.0,9,0.00,,,-99.99,,2013-06-29 20:52:00,
2013-06-29 14:32:00,123.0,48.0,29.49,SE,130,1.0,-999.0,9,0.00,,,-99.99,,2013-06-29 21:32:00,
2013-06-29 14:42:00,123.0,48.0,29.49,SE,130,1.0,-999.0,9,0.00,,,-99.99,,2013-06-29 21:42:00,
2013-06-29 14:52:00,123.0,48.0,29.49,SE,130,1.0,-999.0,9,0.00,,,-99.99,,2013-06-29 21:52:00,
2013-06-29 15:33:00,125.0,43.0,29.04,North,0,0.0,-999.0,7,0.00,,,-99.99,,2013-06-29 22:33:00,
2013-06-29 15:43:00,125.0,43.0,29.04,North,0,0.0,-999.0,7,0.00,,,-99.99,,2013-06-29 22:43:00,
2013-06-29 15:53:00,125.0,43.0,29.04,North,0,0.0,-999.0,7,0.00,,,-99.99,,2013-06-29 22:53:00,
2013-06-29 16:33:00,123.0,45.0,29.28,North,0,0.0,-999.0,8,0.00,,,-99.99,,2013-06-29 23:33:00,
2013-06-29 16:43:00,123.0,45.0,29.28,North,0,0.0,-999.0,8,0.00,,,-99.99,,2013-06-29 23:43:00,
2013-06-29 16:52:00,123.0,45.0,29.28,North,0,0.0,-999.0,8,0.00,,,-99.99,,2013-06-29 23:52:00,
2013-06-29 17:33:00,119.0,48.0,29.09,SE,130,6.0,-999.0,10,0.00,,,-99.99,,2013-06-30 00:33:00,
2013-06-29 17:43:00,119.0,48.0,29.09,SE,130,6.0,-999.0,10,0.00,,,-99.99,,2013-06-30 00:43:00,
2013-06-29 17:52:00,119.0,48.0,29.09,SE,130,6.0,-999.0,10,0.00,,,-99.99,,2013-06-30 00:52:00,
2013-06-29 18:33:00,117.0,49.0,29.33,North,0,0.0,-999.0,11,0.00,,,-99.99,,2013-06-30 01:33:00,
2013-06-29 18:44:00,117.0,49.0,29.33,North,0,0.0,-999.0,11,0.00,,,-99.99,,2013-06-30 01:44:00,
2013-06-29 18:53:00,117.0,49.0,29.33,North,0,0.0,-999.0,11,0.00,,,-99.99,,2013-06-30 01:53:00,
2013-06-29 19:33:00,113.0,52.0,29.42,North,0,0.0,-999.0,14,0.00,,,-99.99,,2013-06-30 02:33:00,
2013-06-29 19:43:00,113.0,52.0,29.42,North,0,0.0,-999.0,14,0.00,,,-99.99,,2013-06-30 02:43:00,
2013-06-29 19:53:00,113.0,52.0,29.42,North,0,0.0,-999.0,14,0.00,,,-99.99,,2013-06-30 02:53:00,
2013-06-29 21:33:00,101.0,64.0,29.22,South,180,5.0,-999.0,30,0.00,,,-99.99,,2013-06-30 04:33:00,
2013-06-29 21:43:00,101.0,64.0,29.22,South,180,5.0,-999.0,30,0.00,,,-99.99,,2013-06-30 04:43:00,
2013-06-29 21:53:00,101.0,64.0,29.22,South,180,5.0,-999.0,30,0.00,,,-99.99,,2013-06-30 04:53:00,
2013-06-29 22:33:00,101.0,64.0,29.15,North,0,0.0,-999.0,30,0.00,,,-99.99,,2013-06-30 05:33:00,
2013-06-29 22:43:00,101.0,64.0,29.15,North,0,0.0,-999.0,30,0.00,,,-99.99,,2013-06-30 05:43:00,
2013-06-29 22:53:00,101.0,64.0,29.15,North,0,0.0,-999.0,30,0.00,,,-99.99,,2013-06-30 05:53:00,
2013-06-29 23:33:00,97.0,62.0,29.35,North,0,0.0,-999.0,32,0.00,,,-99.99,,2013-06-30 06:33:00,
2013-06-29 23:43:00,97.0,62.0,29.35,North,0,0.0,-999.0,32,0.00,,,-99.99,,2013-06-30 06:43:00,
2013-06-29 23:53:00,97.0,62.0,29.35,North,0,0.0,-999.0,32,0.00,,,-99.99,,2013-06-30 06:53:00,